Погода в Сергеихе

Россия / Владимирская область     56°25′02″N   40°45′12″E
темп.,
°C
ветер,
м/с
пор.,
м/с
влажн.,
%
обл.,
%
осадки,
мм/ч
давл.,
гПа
погр.,
м
22 апреля, чт
чт2200:00+3ююз3894100 0.0 1012400
03:00+3ююз4994100 0.0 1013488
06:00+4ю4994100 0.1 1014597
09:00+5ю489299 0.7 1015600
12:00+8ююз5874100 0.0 10161123
15:00+11ююз596496 0.1 10161398
18:00+11ююз486999 0.2 1016537
21:00+7ю3118811 0.3 1017241
23 апреля, пт
пт2300:00+6ю412875 0.1 1017296
03:00+5ююв311915 0.1 1017255
06:00+6ююв412925 0.0 1017314
09:00+11ю597083 0.1 1017533
12:00+15ю69525 0.2 10161727
15:00+15ю5105269 0.3 10151644
18:00+14ююв6105481 0.0 10141095
21:00+10юв412719 0.0 1014392
24 апреля, сб
сб2400:00+8юв4138155 0.1 1012388
03:00+7юв4148548 0.1 1010413
06:00+7юв5148689 0.0 1008487
09:00+11ююв61174100 0.1 1007956
12:00+8зюз6883100 0.7 1007587
15:00+4з4895100 3.5 1007566
18:00+4зсз3793100 0.4 1007595
21:00+4зсз3695100 1.4 1006700
25 апреля, вс
вс2500:00+3зсз4897100 0.6 1005571
03:00+3з41090100 1.2 1005900
06:00+2з51285100 0.1 1005752
09:00+5з6116976 0.1 10061297
12:00+7з7105395 0.6 10072163
15:00+8з6114798 1.1 10082393
18:00+7зюз595392 0.4 10081594
21:00+3юз3107451 0.4 1010287
26 апреля, пн
пн2600:00+1зюз410805 0.0 1011325
03:000юз39855 0.0 1011251
06:00+1зюз310815 0.0 1012370
09:00+6зюз57545 0.0 10121232
12:00+8зюз5741100 0.0 10112501
15:00+9зюз5638100 0.0 10112157
18:00+7юз465188 0.3 1010677
21:00+3ююз268386 1.1 1011123